Temp
-3 -2 -2 -2 -2 -1 -1 -1 -1 -1 -1 -1 -1 -1 -1 -1 -2 -2 -1 -2 -2 -1 0 2 3 4 5 5 4 4 3 2 2 4 6 8 8 10 10 11 10 10 9 9 10 10 10 14 14 13 12 12 12 12
-2 -2 -2 -1 -1 -1 -1 -1 -1 -1 -1 -1 -1 -1 -1 -1 -1 -2 -2 -2 -2 -2 -1 1 2 4 3 3 2 2 4 3 4 6 7 8 9 9 11 10 12 10 12 11 12 12 13 12 11 10 10 10 9 9
-2 -2 -2 -1 -1 -1 -1 -1 -1 -0 -0 -1 -1 -1 -1 -1 -1 -2 -2 -2 -2 -2 -2 -0 2 2 2 3 3 3 4 5 5 5 4 7 7 10 9 10 11 12 12 12 12 13 11 11 10 8 9 8 8 7
-2 -1 -0 -0 -0 -0 -0 -0 0 -0 0 0 -0 -0 -1 -1 -1 -1 -2 -2 -2 -1 -0 3 3 2 2 3 3 3 2 3 4 3 6 6 7 10 9 8 11 10 12 12 13 12 12 10 8 6 7 6 6 5
-1 -0 -0 -0 -0 -0 0 -0 0 0 0 -0 0 -0 -1 -1 -1 -1 -2 -1 -1 1 3 4 4 3 3 2 2 2 2 3 2 3 5 6 8 9 11 10 10 12 11 11 10 8 9 9 6 4 5 4 4 3
-1 -0 -1 -0 -1 -0 -0 0 -0 -0 0 0 -0 -0 -1 -1 -1 -1 -1 -1 -1 -0 0 2 4 3 2 3 3 2 2 2 2 2 5 7 8 8 8 9 9 8 6 6 7 5 5 5 2 2 2 1 1 1
-1 -1 -1 -1 -0 -0 0 0 -0 -0 0 0 -0 -0 -1 -1 -1 -1 -0 -0 -1 -1 -0 2 4 3 4 4 3 3 2 2 2 2 4 7 7 7 8 8 2 3 4 3 2 3 4 2 1 -0 0 -0 -1 -1
-1 -1 -0 0 0 0 0 0 0 -0 -0 0 -0 -0 -1 -1 -1 -1 -0 1 -0 -0 -0 2 3 3 3 3 3 2 2 1 1 2 4 7 7 7 5 1 0 -0 2 2 0 1 -0 -1 -2 -2 -2 -2 -3 -4
-1 -0 -0 -0 0 0 0 0 0 -0 -0 -0 -0 -0 -1 -1 -1 -0 -1 -0 -0 0 1 2 3 3 1 2 2 2 1 2 2 2 3 5 6 1 -2 -2 -3 -3 -3 -2 -1 0 -0 -2 -3 -4 -4 -4 -4 -5
-1 -0 -0 -0 -0 -0 -0 -0 -0 -0 -0 -0 -1 -1 -1 -1 -0 -1 -1 -1 -0 -0 1 3 3 3 3 3 2 2 2 4 3 3 2 4 -1 -3 -3 -3 -4 -5 -4 -4 -3 -2 -3 -3 -3 -5 -5 -6 -6 -7
-1 -0 -0 -0 -0 -0 -0 -0 -0 -1 -0 -1 -1 -1 -1 -1 -1 -1 -1 0 0 2 2 3 3 3 2 4 3 3 4 5 5 4 4 3 -1 -3 -4 -4 -5 -6 -5 -5 -5 -6 -6 -6 -6 -6 -7 -8 -9 -10
-1 -1 -0 -1 -1 -1 -1 -1 -1 -0 -0 0 -1 -1 -1 -1 -0 1 2 1 4 4 2 2 2 3 1 2 3 2 4 4 4 3 3 2 -3 -4 -5 -6 -7 -7 -7 -7 -8 -8 -8 -8 -8 -9 -9 -11 -11 -11
-1 -1 -1 -0 -0 -0 -0 -0 1 0 -0 0 1 -2 -1 -1 1 2 2 2 2 0 -1 1 2 1 1 1 2 3 3 3 2 3 1 -2 -4 -6 -7 -7 -8 -8 -9 -9 -9 -10 -10 -11 -11 -11 -12 -12 -12 -12
-0 -0 -0 -1 -1 -1 -0 -0 -0 0 1 -1 -1 -3 -0 -0 -1 -1 -0 -0 -3 -2 -1 1 1 2 0 1 1 2 -0 1 2 2 -0 -4 -7 -8 -8 -9 -9 -10 -10 -11 -11 -12 -12 -12 -12 -11 -11 -11 -11 -11
-0 -0 -1 -1 -1 -1 -1 -0 1 2 -2 -3 -1 -2 -3 -4 -4 -4 -4 -3 -3 -3 -1 1 1 2 0 0 1 1 0 1 1 -0 -3 -6 -8 -8 -9 -10 -10 -11 -11 -11 -12 -12 -12 -12 -12 -12 -12 -11 -11 -11
-0 -0 0 0 1 1 1 1 1 1 -4 -5 -5 -3 -4 -2 -3 -4 -3 -3 -4 -3 -1 0 0 0 -1 1 1 -0 3 1 -3 -4 -7 -8 -9 -10 -10 -10 -10 -11 -11 -11 -12 -12 -12 -12 -12 -12 -12 -12 -12 -12
-1 0 1 1 0 0 1 2 -1 -5 -5 -5 -5 -6 -5 -5 -4 -5 -5 -5 -4 -2 0 2 1 -2 1 -0 -2 -2 -3 -5 -7 -7 -8 -9 -10 -10 -11 -11 -11 -11 -11 -12 -12 -12 -12 -12 -12 -13 -13 -14 -14 -14
-1 0 1 1 1 1 0 -3 -5 -5 -6 -5 -5 -6 -6 -6 -5 -6 -6 -5 -2 -1 -1 -2 -0 -2 -2 -1 -3 -6 -7 -8 -9 -9 -10 -10 -10 -10 -11 -11 -11 -11 -12 -12 -12 -12 -12 -12 -12 -13 -14 -14 -15 -15
-1 0 0 -0 -1 -2 -4 -5 -4 -5 -6 -6 -6 -7 -6 -7 -7 -7 -6 -5 -4 -3 -3 -2 -3 -4 -5 -6 -7 -8 -8 -9 -9 -10 -11 -11 -11 -12 -12 -12 -12 -12 -12 -12 -12 -12 -13 -13 -13 -13 -13 -13 -13 -14
-0 -0 -0 -1 -1 -2 -4 -4 -4 -4 -4 -6 -6 -6 -7 -7 -7 -7 -7 -6 -5 -5 -6 -6 -6 -7 -7 -8 -8 -8 -9 -9 -9 -9 -10 -11 -11 -11 -12 -11 -12 -12 -13 -13 -13 -13 -13 -14 -15 -15 -15 -15 -14 -15
-2 -1 -1 -2 -2 -3 -3 -3 -4 -5 -5 -6 -6 -5 -6 -7 -7 -7 -7 -7 -7 -7 -7 -8 -9 -10 -9 -9 -9 -9 -9 -9 -8 -8 -9 -10 -11 -12 -12 -13 -13 -13 -12 -13 -13 -14 -14 -15 -15 -16 -16 -17 -17 -18
-1 -1 -2 -2 -2 -3 -4 -4 -4 -4 -4 -5 -5 -5 -5 -5 -6 -8 -7 -8 -9 -9 -9 -9 -9 -10 -10 -10 -11 -11 -11 -11 -10 -11 -11 -12 -11 -12 -12 -13 -13 -14 -14 -14 -14 -15 -16 -16 -17 -17 -17 -18 -18 -18
-0 -1 -1 -2 -3 -3 -4 -4 -3 -3 -3 -4 -4 -4 -5 -5 -7 -6 -7 -9 -10 -10 -10 -10 -11 -11 -12 -12 -12 -12 -12 -11 -11 -12 -12 -13 -13 -14 -14 -14 -14 -15 -15 -16 -16 -16 -17 -18 -18 -18 -18 -18 -18 -19
-0 -1 -3 -3 -3 -4 -4 -3 -3 -3 -3 -3 -4 -5 -5 -6 -6 -6 -7 -9 -10 -11 -11 -11 -11 -11 -11 -11 -11 -12 -12 -12 -13 -13 -13 -13 -13 -14 -15 -15 -16 -16 -17 -17 -17 -17 -18 -18 -18 -18 -19 -19 -19 -19
-2 -6 -5 -4 -3 -3 -3 -3 -3 -3 -4 -4 -5 -5 -6 -6 -5 -5 -7 -9 -10 -10 -11 -11 -10 -10 -10 -11 -12 -13 -13 -12 -12 -13 -14 -14 -15 -15 -15 -16 -17 -18 -18 -17 -17 -18 -19 -19 -19 -19 -19 -19 -19 -20
-5 -8 -5 -4 -4 -2 -2 -3 -3 -3 -4 -5 -6 -7 -6 -5 -5 -6 -7 -9 -10 -11 -11 -11 -11 -11 -11 -11 -12 -13 -14 -14 -14 -14 -15 -16 -16 -15 -15 -15 -15 -16 -18 -19 -18 -18 -18 -19 -20 -20 -20 -19 -20 -19
-5 -6 -8 -9 -6 -5 -4 -5 -4 -4 -5 -5 -5 -6 -5 -6 -7 -9 -11 -11 -11 -12 -12 -12 -11 -11 -12 -13 -14 -14 -13 -13 -14 -14 -14 -14 -15 -15 -17 -17 -17 -18 -18 -18 -19 -20 -19 -19 -20 -20 -20 -20 -20 -21
-9 -10 -8 -10 -9 -8 -7 -7 -7 -7 -7 -8 -6 -8 -8 -7 -9 -11 -12 -13 -13 -14 -14 -14 -14 -14 -14 -14 -13 -13 -13 -14 -14 -14 -15 -15 -15 -16 -16 -16 -16 -17 -17 -17 -18 -18 -20 -21 -21 -21 -21 -21 -21 -21
-10 -11 -11 -13 -11 -11 -12 -10 -9 -12 -12 -9 -8 -9 -12 -14 -14 -14 -14 -14 -14 -14 -14 -13 -13 -13 -13 -13 -13 -15 -16 -16 -16 -16 -16 -16 -17 -18 -17 -17 -18 -17 -18 -19 -19 -18 -18 -19 -19 -20 -20 -21 -21 -20
-11 -11 -12 -12 -12 -12 -14 -13 -13 -14 -14 -13 -14 -15 -15 -16 -15 -15 -15 -14 -14 -14 -15 -15 -15 -15 -15 -15 -14 -14 -14 -15 -15 -16 -17 -17 -18 -18 -17 -18 -18 -18 -18 -18 -19 -20 -19 -19 -19 -20 -20 -21 -22 -22
-11 -11 -11 -12 -12 -13 -14 -14 -14 -13 -13 -12 -12 -13 -14 -15 -16 -15 -15 -15 -14 -14 -14 -14 -15 -15 -15 -15 -16 -17 -17 -15 -15 -16 -16 -16 -17 -17 -17 -18 -18 -18 -18 -18 -18 -18 -19 -19 -20 -20 -20 -20 -20 -20
-11 -11 -11 -12 -13 -14 -14 -12 -12 -12 -12 -12 -13 -13 -13 -12 -13 -16 -15 -15 -16 -15 -15 -16 -16 -16 -14 -14 -15 -15 -16 -16 -16 -16 -17 -17 -17 -17 -18 -18 -18 -18 -18 -18 -18 -18 -19 -19 -19 -19 -19 -20 -20 -20
-10 -11 -11 -11 -12 -11 -13 -10 -10 -11 -11 -11 -13 -13 -14 -12 -13 -16 -15 -15 -15 -16 -17 -15 -15 -14 -15 -15 -15 -16 -16 -16 -16 -17 -17 -17 -18 -18 -18 -18 -18 -18 -18 -18 -18 -19 -19 -19 -19 -20 -20 -20 -20 -20
Height
1373 1370 1368 1366 1364 1364 1363 1364 1365 1365 1367 1370 1372 1376 1382 1388 1397 1406 1409 1416 1422 1423 1420 1421 1420 1420 1417 1419 1422 1421 1427 1429 1432 1426 1416 1404 1401 1396 1392 1388 1397 1401 1407 1410 1410 1409 1410 1396 1396 1401 1409 1408 1412 1412
1362 1359 1357 1354 1352 1351 1351 1352 1353 1355 1358 1360 1364 1368 1371 1379 1386 1397 1404 1410 1418 1422 1417 1416 1416 1416 1417 1418 1420 1421 1422 1422 1422 1417 1412 1405 1398 1398 1388 1389 1390 1396 1394 1394 1398 1397 1398 1400 1406 1411 1412 1413 1415 1415
1352 1348 1344 1342 1340 1339 1339 1340 1342 1344 1348 1352 1355 1360 1365 1371 1376 1385 1396 1405 1413 1417 1418 1416 1410 1411 1413 1416 1419 1419 1418 1420 1418 1418 1417 1408 1404 1394 1395 1390 1387 1390 1395 1393 1396 1394 1400 1406 1410 1414 1415 1416 1416 1417
1341 1338 1334 1332 1331 1330 1330 1332 1334 1336 1339 1344 1348 1352 1358 1365 1371 1380 1387 1397 1406 1410 1411 1403 1402 1405 1409 1411 1414 1416 1418 1418 1418 1419 1415 1409 1404 1396 1397 1402 1390 1397 1395 1392 1391 1399 1400 1406 1413 1417 1418 1417 1418 1418
1334 1331 1327 1323 1321 1320 1321 1322 1325 1329 1333 1337 1342 1347 1354 1362 1368 1377 1386 1392 1397 1405 1398 1397 1398 1400 1403 1406 1411 1413 1415 1417 1417 1418 1415 1409 1403 1401 1395 1398 1394 1391 1394 1395 1398 1410 1409 1411 1416 1418 1418 1419 1420 1420
1327 1323 1318 1313 1309 1308 1309 1312 1316 1321 1327 1333 1338 1344 1351 1360 1365 1374 1383 1387 1391 1399 1402 1396 1394 1396 1398 1402 1406 1410 1412 1414 1417 1416 1412 1407 1405 1405 1400 1396 1401 1405 1410 1411 1412 1415 1416 1416 1418 1418 1419 1420 1420 1419
1321 1315 1308 1301 1297 1295 1297 1301 1307 1315 1323 1330 1336 1343 1351 1359 1364 1371 1374 1372 1383 1397 1400 1398 1390 1392 1395 1400 1403 1407 1410 1412 1414 1414 1411 1405 1405 1406 1401 1400 1417 1417 1417 1418 1418 1417 1418 1420 1421 1420 1419 1419 1419 1419
1317 1309 1300 1291 1285 1283 1287 1292 1301 1311 1320 1329 1337 1344 1352 1360 1368 1371 1370 1371 1383 1393 1397 1392 1388 1391 1394 1396 1401 1404 1406 1408 1410 1410 1408 1403 1402 1405 1408 1421 1422 1422 1421 1421 1422 1422 1423 1422 1421 1420 1419 1419 1419 1418
1315 1306 1297 1286 1275 1268 1281 1291 1299 1310 1320 1331 1339 1348 1355 1363 1366 1368 1372 1379 1385 1391 1390 1387 1383 1386 1393 1394 1398 1403 1404 1407 1408 1406 1407 1406 1402 1416 1426 1426 1426 1426 1426 1425 1423 1423 1423 1423 1422 1421 1421 1420 1419 1419
1316 1309 1301 1292 1285 1283 1287 1293 1303 1313 1323 1333 1339 1348 1357 1363 1365 1371 1378 1381 1385 1386 1386 1381 1380 1384 1389 1391 1398 1402 1403 1401 1403 1406 1406 1406 1421 1429 1429 1430 1430 1429 1428 1427 1425 1424 1424 1424 1424 1424 1423 1422 1421 1420
1319 1314 1309 1303 1299 1298 1299 1304 1309 1317 1327 1334 1340 1347 1355 1364 1369 1372 1375 1377 1381 1382 1381 1380 1381 1384 1389 1388 1394 1398 1395 1395 1391 1399 1401 1403 1420 1430 1431 1431 1431 1429 1429 1428 1428 1427 1427 1426 1425 1425 1424 1423 1422 1422
1323 1319 1317 1314 1313 1312 1313 1316 1322 1328 1331 1335 1339 1351 1361 1366 1369 1370 1370 1374 1369 1369 1377 1380 1383 1385 1389 1389 1393 1397 1395 1396 1393 1401 1400 1403 1429 1432 1432 1432 1432 1430 1430 1429 1428 1427 1426 1426 1425 1425 1424 1424 1424 1424
1327 1325 1324 1323 1323 1324 1325 1328 1330 1333 1338 1345 1350 1357 1364 1368 1364 1361 1365 1367 1370 1375 1378 1379 1383 1388 1391 1392 1394 1395 1395 1395 1403 1400 1406 1423 1432 1434 1434 1434 1433 1432 1431 1430 1429 1428 1428 1427 1426 1426 1426 1427 1427 1427
1331 1330 1329 1329 1330 1332 1335 1337 1339 1341 1344 1350 1357 1365 1364 1366 1369 1370 1370 1371 1378 1379 1379 1381 1385 1386 1391 1394 1397 1396 1405 1403 1397 1397 1413 1429 1435 1436 1437 1436 1436 1435 1434 1433 1433 1431 1431 1431 1430 1430 1430 1431 1431 1432
1335 1335 1336 1336 1339 1339 1341 1343 1344 1344 1345 1354 1360 1367 1374 1378 1378 1378 1378 1378 1379 1380 1380 1382 1386 1389 1394 1398 1399 1402 1403 1401 1402 1408 1425 1434 1437 1438 1439 1439 1438 1438 1438 1437 1437 1435 1435 1435 1435 1435 1436 1436 1436 1436
1340 1340 1340 1341 1342 1343 1344 1345 1345 1347 1356 1365 1373 1375 1378 1377 1379 1381 1380 1380 1380 1380 1381 1383 1387 1393 1399 1398 1398 1402 1391 1398 1419 1428 1435 1438 1439 1440 1441 1441 1441 1441 1441 1441 1441 1441 1441 1440 1440 1440 1441 1441 1441 1441
1341 1343 1343 1344 1344 1345 1346 1347 1350 1359 1370 1376 1383 1384 1383 1384 1384 1385 1384 1384 1382 1382 1383 1382 1386 1396 1397 1399 1408 1414 1415 1425 1431 1435 1438 1440 1442 1443 1444 1444 1445 1445 1445 1445 1446 1446 1446 1446 1446 1446 1445 1445 1445 1444
1342 1343 1345 1346 1347 1347 1347 1352 1362 1372 1381 1384 1385 1388 1388 1388 1388 1387 1387 1385 1384 1384 1386 1393 1395 1400 1403 1405 1414 1428 1431 1434 1437 1439 1441 1443 1444 1445 1446 1447 1447 1448 1448 1449 1449 1449 1450 1450 1450 1450 1449 1449 1448 1448
1342 1343 1344 1345 1346 1348 1355 1363 1368 1378 1388 1390 1391 1391 1391 1393 1393 1392 1391 1390 1389 1389 1392 1399 1407 1412 1421 1424 1427 1432 1435 1438 1440 1443 1444 1445 1446 1447 1448 1449 1449 1450 1451 1451 1452 1452 1451 1451 1452 1452 1452 1452 1451 1451
1343 1344 1346 1347 1348 1351 1361 1370 1373 1379 1387 1393 1394 1395 1396 1397 1397 1397 1395 1394 1393 1395 1405 1414 1423 1428 1429 1431 1433 1436 1438 1441 1443 1445 1447 1449 1449 1450 1451 1451 1452 1452 1452 1452 1452 1453 1453 1452 1451 1450 1450 1451 1451 1451
1346 1347 1348 1349 1350 1356 1366 1373 1378 1384 1389 1393 1396 1397 1399 1401 1400 1400 1400 1401 1401 1415 1424 1431 1433 1435 1436 1437 1439 1440 1442 1444 1445 1446 1448 1450 1452 1452 1452 1453 1453 1453 1454 1454 1453 1452 1452 1452 1452 1451 1450 1449 1449 1448
1348 1349 1351 1351 1356 1364 1373 1377 1379 1385 1390 1395 1397 1398 1401 1404 1406 1408 1411 1412 1426 1432 1433 1436 1438 1439 1440 1441 1442 1443 1444 1445 1446 1448 1450 1451 1453 1454 1454 1454 1454 1454 1454 1453 1453 1453 1452 1452 1451 1450 1450 1449 1449 1448
1349 1350 1352 1355 1361 1370 1382 1380 1382 1385 1389 1395 1397 1400 1404 1408 1413 1414 1420 1429 1436 1439 1439 1440 1441 1442 1443 1444 1445 1447 1448 1450 1451 1451 1452 1453 1453 1454 1454 1454 1454 1454 1454 1453 1452 1452 1451 1449 1449 1449 1449 1449 1449 1448
1350 1351 1355 1359 1365 1374 1379 1381 1383 1386 1391 1394 1397 1403 1407 1411 1415 1419 1427 1435 1440 1441 1442 1443 1444 1445 1447 1448 1449 1450 1451 1451 1452 1453 1454 1455 1455 1455 1454 1454 1453 1453 1452 1452 1451 1451 1450 1449 1448 1449 1448 1448 1448 1448
1353 1362 1363 1365 1369 1372 1376 1380 1384 1386 1390 1396 1400 1405 1410 1412 1414 1422 1429 1439 1441 1442 1444 1445 1446 1447 1449 1450 1451 1451 1452 1454 1455 1454 1454 1455 1455 1455 1455 1454 1453 1452 1451 1452 1452 1451 1449 1448 1448 1448 1448 1448 1447 1446
1360 1369 1369 1368 1371 1370 1374 1378 1382 1386 1392 1398 1404 1409 1410 1411 1416 1424 1432 1438 1441 1443 1445 1446 1448 1449 1451 1452 1453 1454 1454 1453 1455 1455 1454 1454 1454 1455 1455 1454 1454 1453 1450 1449 1450 1450 1450 1448 1448 1446 1447 1446 1444 1443
1365 1371 1374 1375 1375 1375 1378 1383 1385 1388 1392 1398 1403 1406 1407 1413 1422 1434 1437 1440 1442 1444 1446 1448 1450 1451 1452 1452 1452 1452 1453 1453 1454 1454 1453 1453 1452 1452 1452 1453 1452 1451 1448 1447 1447 1447 1448 1447 1446 1446 1445 1445 1444 1442
1374 1376 1375 1380 1380 1382 1384 1388 1392 1396 1401 1405 1405 1411 1413 1418 1427 1435 1437 1440 1442 1444 1446 1447 1449 1451 1452 1452 1453 1453 1454 1454 1454 1454 1453 1453 1452 1451 1450 1449 1449 1448 1447 1446 1445 1444 1444 1444 1444 1444 1443 1442 1441 1439
1378 1380 1382 1386 1386 1392 1399 1401 1403 1408 1410 1408 1409 1415 1424 1430 1433 1436 1439 1441 1443 1445 1446 1447 1449 1451 1452 1453 1454 1454 1455 1455 1457 1456 1456 1456 1455 1453 1450 1449 1448 1447 1446 1445 1444 1443 1442 1441 1440 1439 1439 1438 1437 1436
1383 1383 1386 1393 1397 1405 1411 1411 1412 1412 1412 1412 1415 1421 1426 1432 1436 1439 1441 1444 1446 1447 1448 1450 1451 1453 1453 1454 1454 1455 1455 1454 1454 1455 1456 1455 1454 1451 1449 1448 1447 1446 1445 1444 1443 1442 1441 1440 1438 1438 1437 1436 1435 1435
1385 1386 1391 1399 1409 1416 1416 1416 1417 1417 1417 1418 1422 1424 1428 1433 1439 1440 1442 1444 1445 1447 1449 1450 1452 1453 1454 1454 1456 1455 1455 1454 1454 1453 1453 1452 1450 1449 1448 1447 1446 1444 1443 1442 1441 1440 1439 1438 1437 1436 1435 1434 1433 1431
1388 1390 1394 1403 1415 1419 1417 1420 1421 1423 1425 1427 1428 1431 1434 1437 1441 1444 1444 1446 1449 1450 1451 1452 1453 1453 1453 1454 1454 1454 1453 1453 1453 1452 1451 1450 1449 1448 1446 1445 1444 1443 1442 1441 1440 1439 1438 1437 1436 1434 1433 1432 1430 1428
1393 1395 1396 1402 1411 1414 1418 1418 1421 1427 1429 1431 1434 1436 1437 1438 1442 1444 1445 1446 1448 1451 1451 1451 1452 1453 1453 1454 1454 1453 1453 1453 1452 1451 1450 1449 1448 1446 1445 1444 1443 1442 1441 1440 1439 1438 1437 1435 1434 1433 1431 1429 1427 1425
Wind_Speed
33 33 33 33 31 30 30 28 28 28 25 25 24 32 31 38 44 42 42 33 37 15 28 22 18 17 21 12 5 9 6 4 4 5 4 4 4 5 3 4 11 11 9 7 10 9 11 5 3 4 6 8 9 10
33 35 36 35 34 33 32 31 30 28 26 26 26 28 29 36 37 46 36 36 30 23 14 13 31 23 17 12 8 8 3 2 6 4 5 2 4 1 5 4 10 6 7 5 9 7 8 13 17 11 9 9 11 12
34 33 34 27 25 25 25 25 26 26 26 27 23 26 29 29 35 48 45 32 34 26 25 31 26 21 26 18 11 6 11 14 7 8 3 3 5 4 4 5 2 8 4 1 4 9 7 12 13 12 11 11 12 12
33 24 22 22 24 24 21 21 22 20 23 28 26 26 28 26 32 43 42 42 35 11 5 13 19 35 14 19 18 20 19 12 7 7 4 3 3 4 2 2 4 5 1 5 4 7 9 12 13 11 11 12 13 13
20 22 23 24 22 23 23 22 22 22 20 20 22 26 27 25 29 35 42 37 36 25 5 20 16 13 26 25 19 15 18 10 5 3 4 4 3 3 2 2 4 4 3 3 2 8 8 9 10 11 13 14 13 12
21 22 28 27 27 25 24 21 21 24 23 23 20 28 30 25 26 35 13 34 39 37 6 2 11 11 16 17 21 23 18 10 4 3 5 5 6 4 2 3 11 14 13 14 6 9 7 7 7 11 11 12 11 11
25 23 30 24 21 18 20 22 26 25 26 24 24 26 31 30 30 21 5 14 40 34 5 3 3 7 18 17 18 19 18 8 8 3 4 6 5 4 3 6 7 11 10 9 11 12 7 9 6 9 9 9 8 8
21 26 18 23 18 16 15 22 26 29 29 27 27 32 32 31 23 11 6 14 37 21 6 3 2 4 15 10 8 8 5 6 7 4 4 5 6 7 1 7 9 11 8 5 12 10 5 5 5 8 8 8 6 8
19 20 23 17 13 9 26 28 27 34 31 31 29 32 34 25 6 7 19 35 33 7 4 4 5 3 13 4 5 7 4 2 5 3 2 3 2 3 5 8 10 11 10 12 12 7 4 7 7 8 8 8 6 7
16 18 21 19 20 22 25 26 37 35 35 35 50 17 7 17 26 38 18 5 6 5 4 2 2 3 12 6 3 3 5 4 3 2 5 0 3 7 5 6 7 9 9 10 10 9 10 8 7 6 6 6 5 5
13 15 19 23 21 28 28 31 36 37 45 31 6 6 33 28 15 3 4 3 5 4 6 2 4 4 2 5 3 6 2 4 3 3 3 4 3 3 5 6 8 8 8 7 6 5 5 5 4 3 5 6 7 7
16 14 25 28 36 34 34 39 40 27 12 12 25 30 21 5 3 3 4 2 5 4 4 4 4 5 3 3 3 2 2 1 0 4 3 3 3 5 6 6 7 7 7 7 8 7 7 7 7 7 8 9 10 11
14 14 15 25 26 26 29 21 26 35 38 31 11 5 2 1 3 4 7 3 4 3 2 5 4 4 3 3 4 2 3 1 3 2 3 3 7 8 7 6 7 8 8 8 9 10 10 11 12 12 13 13 13 15
16 14 17 24 24 28 36 32 33 26 5 6 4 4 3 3 3 3 4 4 4 4 7 10 5 2 3 3 2 3 1 2 3 5 3 5 7 6 6 7 7 9 9 10 11 12 14 15 16 16 15 15 15 15
14 16 22 21 21 19 14 11 6 3 6 6 5 4 4 3 4 3 2 1 4 4 5 9 6 4 3 2 0 3 4 3 4 3 3 9 7 7 7 8 8 9 10 11 12 13 15 15 16 17 15 15 15 15
12 13 16 14 12 8 4 6 8 11 6 6 8 3 2 4 6 8 8 9 6 6 4 5 3 4 2 2 2 2 2 3 3 4 10 9 8 9 9 10 11 12 12 13 13 13 14 15 15 15 14 13 12 11
6 6 12 14 12 7 1 5 5 9 6 5 5 8 6 8 9 7 8 7 5 4 2 1 3 3 3 3 3 5 4 6 12 12 11 11 11 11 11 11 11 12 12 11 11 11 12 12 11 11 12 10 9 9
4 10 12 15 11 7 9 9 7 6 6 8 5 10 13 11 9 10 10 13 5 3 4 3 4 4 4 2 4 5 13 14 13 13 12 12 12 11 10 10 10 9 9 9 9 9 8 8 7 7 7 7 7 7
9 8 6 5 4 5 5 6 6 6 7 6 8 8 8 11 13 11 12 11 12 11 7 5 5 4 3 6 13 14 13 13 15 13 12 11 10 9 9 8 8 7 7 6 6 5 5 6 5 4 3 3 2 2
9 8 6 6 6 5 6 6 6 7 4 5 6 9 7 7 7 12 14 15 14 8 8 5 4 10 12 13 13 13 14 13 13 12 10 8 7 7 6 6 5 6 5 6 5 5 4 4 4 3 3 3 2 1
11 11 10 7 8 10 7 5 6 8 8 6 7 7 7 12 13 13 12 12 14 7 5 9 13 12 13 13 13 13 11 7 6 6 8 8 6 5 5 5 4 4 3 2 2 3 3 2 2 2 2 2 2 2
9 8 5 7 6 6 7 8 9 9 5 9 6 5 5 6 8 9 10 12 7 11 10 13 13 13 13 13 11 10 9 9 9 9 9 8 6 5 4 3 2 3 3 2 1 1 1 1 2 2 2 2 3 2
6 4 5 5 6 5 6 2 4 3 3 5 5 3 3 4 4 4 6 7 7 9 10 11 12 12 13 12 12 12 10 9 9 8 8 7 6 5 4 4 3 3 2 2 2 1 1 0 0 1 1 1 0 1
3 4 4 4 5 5 5 3 4 4 5 3 3 4 3 4 4 5 4 5 7 8 9 10 10 11 11 10 10 9 9 8 8 8 6 5 4 4 3 3 3 2 2 1 1 1 0 1 1 1 1 1 2 2
3 7 4 5 4 4 4 4 3 3 3 3 3 3 3 3 3 3 3 7 9 8 8 7 7 6 9 8 7 7 8 5 5 5 5 4 3 3 3 2 2 2 2 2 3 2 2 1 1 1 2 2 4 4
6 8 5 2 2 2 3 4 3 5 4 3 3 5 3 2 3 5 3 11 10 9 8 8 9 9 8 7 7 5 4 4 4 3 3 3 2 2 1 2 2 4 4 1 1 2 4 4 4 4 4 6 8 7
4 4 5 5 3 6 6 7 8 5 4 3 3 3 3 3 4 3 8 10 11 10 9 8 7 6 7 6 6 4 3 2 3 2 1 2 2 1 0 1 1 4 5 3 2 2 3 4 5 5 5 5 6 7
5 6 3 4 7 9 4 4 4 3 3 3 3 3 3 3 3 5 8 11 12 11 10 9 9 8 8 6 5 3 3 2 2 2 3 4 4 3 3 3 3 4 5 5 5 6 5 5 5 5 6 7 8 8
5 4 6 6 7 9 10 5 4 4 3 2 3 3 4 5 7 13 13 12 11 9 9 9 9 8 7 5 3 3 2 1 1 3 2 2 2 6 5 4 5 6 6 6 8 6 6 6 6 7 7 8 8 10
4 5 6 8 5 6 7 7 8 5 5 8 12 22 23 15 14 13 12 11 10 9 9 8 8 5 5 3 2 0 1 2 2 1 2 2 3 6 6 6 6 8 8 7 6 6 9 7 8 8 8 8 8 8
4 5 6 7 6 12 15 15 17 19 20 21 16 21 17 11 10 12 11 10 10 9 8 7 7 5 4 3 2 1 3 3 4 4 5 6 6 7 7 8 8 8 8 7 7 7 7 7 7 8 8 9 10 12
5 4 7 5 9 9 4 8 11 16 15 14 12 13 12 8 5 4 9 9 7 7 8 6 4 3 2 1 1 2 3 3 4 5 6 6 6 6 6 6 6 6 6 7 7 7 8 8 9 10 11 11 12 13
16 17 17 14 8 7 6 7 5 6 6 5 4 4 4 3 4 4 11 14 13 9 7 7 5 3 2 1 1 1 2 4 5 6 6 5 5 5 5 5 5 6 6 7 7 8 9 10 11 12 13 13 14 15
Wind_Direction
292 288 288 286 285 277 275 272 269 264 253 245 244 226 224 218 214 212 221 216 212 232 251 252 255 261 257 234 237 141 124 187 178 230 245 227 235 232 230 134 163 180 191 198 230 227 241 6 189 299 45 65 40 25
291 287 285 284 281 277 273 269 265 257 252 238 232 231 225 217 216 205 214 214 213 220 244 264 245 253 266 287 312 178 229 169 210 249 245 250 262 183 248 198 177 188 202 191 197 210 119 70 80 70 50 47 32 23
296 292 291 292 280 269 263 260 255 245 237 237 235 222 216 216 216 202 206 208 210 226 248 252 247 248 246 249 243 224 229 240 246 253 275 262 256 191 214 219 231 156 232 217 219 122 106 105 79 56 45 39 28 20
298 297 301 300 288 279 265 260 247 239 236 227 230 227 208 208 205 202 197 207 207 187 238 252 241 235 246 229 243 240 252 270 239 286 264 281 249 283 246 168 289 57 271 217 214 151 122 90 52 36 29 26 17 13
299 301 301 299 288 276 265 256 236 227 218 209 206 205 194 196 196 198 201 198 197 188 232 230 233 241 225 232 235 230 227 236 210 225 238 242 274 297 236 335 255 258 347 247 47 31 9 46 20 15 21 18 13 10
315 304 303 296 286 269 252 241 225 213 206 202 205 197 185 182 178 172 184 200 210 208 250 249 230 216 205 215 222 226 215 202 214 221 257 244 256 304 272 242 66 67 50 38 49 359 360 22 44 22 20 11 9 9
324 315 312 302 287 266 242 229 209 199 191 189 182 175 170 176 171 162 196 198 198 195 204 264 225 201 201 204 212 214 212 201 197 217 257 258 242 243 269 261 47 35 28 40 24 3 90 39 348 350 344 354 3 10
329 336 337 321 297 254 218 188 182 180 177 171 169 169 174 174 171 195 217 180 176 177 192 235 148 151 181 196 191 183 175 163 205 214 240 241 251 204 182 44 26 12 357 36 7 6 9 14 7 346 340 352 358 2
337 354 355 1 5 175 167 171 171 166 166 163 163 167 162 162 136 136 149 156 169 159 203 213 186 144 167 145 127 161 133 193 171 210 228 268 322 55 36 19 18 12 9 346 343 338 353 3 8 6 4 8 16 21
13 29 31 49 79 112 142 154 150 157 155 155 147 135 114 153 137 137 137 118 145 203 242 242 140 112 178 141 129 128 177 192 186 168 147 238 80 87 44 25 9 2 358 354 357 353 352 343 348 1 23 30 45 58
57 52 64 73 93 104 122 138 147 150 150 136 123 92 128 147 124 110 134 163 152 190 206 160 144 123 151 171 130 197 214 173 220 136 216 157 104 69 21 6 4 5 4 4 2 4 356 350 360 25 43 57 69 85
73 90 107 104 105 109 119 127 130 133 136 133 125 118 121 123 132 178 154 150 215 148 125 142 108 121 101 80 109 181 199 190 191 143 238 117 85 51 31 23 14 16 19 27 35 41 44 53 64 78 83 83 92 100
96 74 99 119 123 113 132 107 111 115 115 112 109 76 100 92 197 200 163 162 131 107 117 137 105 107 133 72 79 180 211 126 162 203 63 64 78 49 39 39 39 39 49 56 58 63 67 72 78 82 87 91 98 100
108 91 94 114 108 119 115 117 120 122 105 93 90 75 353 105 79 38 19 54 76 93 124 141 107 97 86 73 17 123 65 245 183 186 93 91 73 62 53 55 68 64 70 74 76 81 84 85 86 89 92 99 103 99
120 111 126 118 116 130 120 92 106 131 63 62 48 73 73 98 70 45 17 110 64 95 128 117 84 74 56 99 76 136 167 150 10 64 86 93 89 80 74 75 78 80 82 82 82 83 88 93 96 97 98 101 102 104
126 120 141 149 157 172 153 114 69 55 61 55 44 88 24 115 78 54 34 61 46 77 81 86 87 116 128 141 119 66 202 60 88 86 104 109 101 96 92 88 86 85 83 84 85 89 95 97 98 99 101 99 98 97
106 139 174 180 186 203 169 149 74 56 55 48 64 36 45 59 48 46 25 11 35 333 75 111 80 61 132 82 86 10 30 98 106 101 99 101 104 102 97 92 90 90 90 92 95 97 97 96 92 88 83 75 74 70
146 141 124 125 137 121 108 52 76 73 67 53 80 64 67 55 53 41 25 24 43 80 50 66 76 61 37 72 95 106 98 99 101 104 103 103 102 101 100 97 97 97 99 102 98 93 86 76 73 74 79 80 70 65
159 151 128 134 92 90 78 55 59 88 72 85 76 69 71 61 49 43 41 42 57 70 88 67 58 49 62 79 111 116 121 119 114 108 103 103 105 105 104 103 100 99 102 93 91 86 82 95 89 84 80 82 81 63
140 146 128 105 84 81 80 65 70 85 91 100 81 67 74 55 50 47 45 43 51 61 52 45 52 75 88 94 108 114 119 122 121 120 115 108 101 97 94 99 98 92 83 78 77 84 68 60 51 69 106 123 126 83
97 109 108 98 65 69 82 84 73 97 109 90 99 91 79 61 53 43 37 31 51 37 74 90 92 88 96 100 105 111 110 114 109 117 134 126 110 104 91 82 87 93 94 83 69 56 75 79 54 64 77 80 97 114
121 118 98 63 78 73 71 49 105 111 86 114 101 77 80 59 50 37 42 52 72 49 91 107 105 105 100 98 97 102 101 109 110 111 116 105 108 105 98 86 91 84 80 71 82 102 93 84 79 65 68 80 105 148
114 89 71 68 84 74 109 122 86 85 106 117 122 88 70 74 63 61 77 57 85 80 99 105 102 108 107 103 101 97 98 101 101 101 102 103 100 93 85 73 66 68 55 32 55 52 255 88 198 100 67 85 103 348
112 72 61 67 76 97 119 82 94 97 104 87 80 92 72 83 97 73 77 81 104 116 115 114 114 111 105 100 95 92 90 97 98 93 89 91 89 78 78 65 51 53 77 46 41 40 38 286 42 314 274 283 272 247
102 21 36 76 91 120 113 113 97 98 99 103 101 101 103 129 84 84 101 136 147 138 133 129 125 119 121 114 106 100 93 94 101 98 79 80 76 58 33 36 35 18 29 3 338 333 305 304 319 293 294 295 271 288
76 24 27 49 91 108 109 118 125 116 105 92 81 108 128 103 85 95 101 149 150 146 140 135 131 126 116 117 118 110 94 94 92 102 67 47 45 33 325 310 316 313 320 310 305 293 292 290 286 290 296 308 306 295
88 67 59 43 70 105 104 81 83 85 85 95 124 127 123 86 92 91 122 124 137 134 131 123 126 133 138 128 125 129 131 128 137 152 4 347 333 319 351 17 279 258 304 302 311 304 285 287 291 291 292 298 300 298
73 35 90 41 71 44 79 63 55 62 78 63 97 59 74 68 104 116 136 137 134 131 123 117 116 122 125 132 132 122 110 94 60 18 6 1 350 341 339 324 315 309 306 309 300 300 293 296 296 292 293 292 291 299
69 78 90 48 61 56 39 36 59 58 35 28 102 96 101 90 108 127 127 128 127 128 129 132 131 133 133 134 134 124 110 74 24 356 8 354 329 313 325 322 323 325 326 328 324 313 306 306 298 292 289 293 290 292
65 39 89 56 57 51 39 45 76 65 82 94 103 113 106 98 96 114 116 119 125 126 127 133 130 122 122 105 105 41 312 325 320 314 332 309 275 293 305 308 313 316 321 318 310 305 315 320 318 319 317 312 307 299
85 76 77 70 83 88 95 96 86 81 86 99 108 110 114 117 110 126 131 137 137 132 131 134 133 131 121 99 104 35 323 316 315 313 307 303 303 301 306 311 313 316 319 320 320 318 317 319 316 311 310 306 306 309
50 79 122 108 126 144 105 101 80 94 93 94 101 105 109 111 106 148 158 137 129 133 150 132 127 172 187 238 259 275 287 309 315 315 311 307 306 311 313 317 321 324 325 324 323 322 321 318 316 313 311 309 308 308
97 97 104 105 124 151 167 144 114 107 96 100 100 102 88 88 121 166 171 165 158 161 166 174 165 163 169 203 281 305 318 322 321 323 324 323 323 326 331 336 337 334 333 331 328 326 323 321 319 316 314 311 310 309